Location: Cormont
(50.5693°N, 1.7416°E)
Time: 21:39:05
(UTC+00:00)

COBE Rocket - Pass Details

Date: 21 October 2019
Orbit: 680 x 782 km, 97.1° (Epoch: 22 November)

Event Time Altitude Azimuth Distance (km) Brightness Sun altitude
Rises 17:11:59 0° 18° (NNE) 3,278 7.0 -4.3°
Reaches altitude 10° 17:14:30 10° 26° (NNE) 2,338 6.2 -4.7°
Maximum altitude 17:19:19 38° 94° (E) 1,155 4.5 -5.4°
Drops below altitude 10° 17:24:00 10° 163° (SSE) 2,276 6.4 -6.2°
Sets 17:26:25 0° 171° (S) 3,181 7.2 -6.5°
